ENT162 EPKT-LTAI

Flight info

Callsign ENT162
Flight time 2h 11m
Altitude 37000
Route REGTO DCT RAZEC DCT KEKED DCT UPAMA DCT ADORU UG80 EKI UL606 CRD UL854 KOZLU
Aircraft B738/M-SDE2E3FGHIRWXY/LB1

Departure

Time 2026-05-06 09:25
Airport Katowice Wojciech Korfanty International Airport (EPKT)

Arrival

Time 2026-05-06 11:36
Airport Antalya International Airport (LTAI)
Time Latitude Longitude Altitude Speed Heading
2026-05-06 08:57 50.47151 19.08183 1000 ft 0 kts 180°
2026-05-06 09:15 50.47159 19.08183 997 ft 4 kts 180°
2026-05-06 09:15 50.47186 19.08182 997 ft 4 kts 175°
2026-05-06 09:15 50.47212 19.08176 999 ft 4 kts 159°
2026-05-06 09:15 50.47231 19.08156 1000 ft 4 kts 103°
2026-05-06 09:16 50.47233 19.08148 997 ft 2 kts 90°
2026-05-06 09:19 50.47233 19.08161 1000 ft 3 kts 88°
2026-05-06 09:19 50.47233 19.08212 1003 ft 6 kts 89°
2026-05-06 09:19 50.47233 19.08301 1002 ft 10 kts 90°
2026-05-06 09:20 50.47232 19.08429 1000 ft 13 kts 91°
2026-05-06 09:20 50.47232 19.08594 1000 ft 17 kts 90°
2026-05-06 09:20 50.47232 19.08793 1003 ft 20 kts 90°
2026-05-06 09:20 50.47229 19.09023 1003 ft 23 kts 89°
2026-05-06 09:21 50.47230 19.09272 1003 ft 23 kts 92°
2026-05-06 09:21 50.47231 19.09519 1000 ft 22 kts 88°
2026-05-06 09:21 50.47231 19.09753 1003 ft 21 kts 91°
2026-05-06 09:21 50.47231 19.09983 1003 ft 21 kts 81°
2026-05-06 09:22 50.47305 19.10169 997 ft 20 kts 46°
2026-05-06 09:22 50.47379 19.10314 997 ft 11 kts 52°
2026-05-06 09:22 50.47397 19.10351 997 ft 0 kts 52°
2026-05-06 09:22 50.47398 19.10352 997 ft 0 kts 52°
2026-05-06 09:23 50.47402 19.10361 998 ft 2 kts 51°
2026-05-06 09:23 50.47419 19.10392 1003 ft 6 kts 49°
2026-05-06 09:23 50.47462 19.10441 1001 ft 10 kts 18°
2026-05-06 09:23 50.47542 19.10446 998 ft 14 kts 357°
2026-05-06 09:24 50.47589 19.10438 1003 ft 4 kts 333°
2026-05-06 09:24 50.47594 19.10393 998 ft 4 kts 270°
2026-05-06 09:24 50.47594 19.10119 1000 ft 67 kts 270°
2026-05-06 09:24 50.47596 19.08941 1000 ft 146 kts 269°
2026-05-06 09:25 50.47605 19.07045 1338 ft 191 kts 267°
2026-05-06 09:25 50.47610 19.04867 2216 ft 201 kts 267°
2026-05-06 09:25 50.47606 19.02695 3257 ft 201 kts 266°
2026-05-06 09:25 50.47595 19.00378 3690 ft 221 kts 267°
2026-05-06 09:26 50.47499 18.97930 4312 ft 227 kts 251°
2026-05-06 09:26 50.46670 18.95817 5026 ft 234 kts 225°
2026-05-06 09:26 50.45351 18.94180 5637 ft 251 kts 209°
2026-05-06 09:26 50.43615 18.93629 6445 ft 265 kts 179°
2026-05-06 09:27 50.41798 18.94345 7272 ft 276 kts 157°
2026-05-06 09:27 50.40248 18.96210 8153 ft 286 kts 138°
2026-05-06 09:27 50.38886 18.98518 9029 ft 292 kts 136°
2026-05-06 09:27 50.37527 19.00930 9843 ft 298 kts 135°
2026-05-06 09:28 50.36136 19.03420 10368 ft 314 kts 135°
2026-05-06 09:28 50.34631 19.06098 10546 ft 340 kts 135°
2026-05-06 09:28 50.33004 19.08976 10733 ft 364 kts 135°
2026-05-06 09:28 50.31276 19.12025 11010 ft 383 kts 135°
2026-05-06 09:29 50.29489 19.15172 11608 ft 389 kts 135°
2026-05-06 09:29 50.27684 19.18344 12405 ft 391 kts 135°
2026-05-06 09:29 50.25870 19.21525 13156 ft 393 kts 135°
2026-05-06 09:29 50.24039 19.24725 13855 ft 397 kts 135°
2026-05-06 09:30 50.22210 19.27914 14497 ft 400 kts 135°
2026-05-06 09:30 50.20344 19.31160 15153 ft 403 kts 135°
2026-05-06 09:30 50.18436 19.34475 15801 ft 406 kts 135°
2026-05-06 09:30 50.16566 19.37718 16417 ft 409 kts 135°
2026-05-06 09:31 50.14657 19.41025 17057 ft 412 kts 135°
2026-05-06 09:31 50.12729 19.44360 17671 ft 415 kts 135°
2026-05-06 09:31 50.10788 19.47711 18245 ft 419 kts 135°
2026-05-06 09:31 50.08829 19.51089 18751 ft 422 kts 135°
2026-05-06 09:32 50.06854 19.54491 19240 ft 425 kts 135°
2026-05-06 09:32 50.04854 19.57929 19649 ft 431 kts 135°
2026-05-06 09:32 50.02835 19.61397 20151 ft 434 kts 135°
2026-05-06 09:32 50.00807 19.64876 20677 ft 435 kts 135°
2026-05-06 09:33 49.98765 19.68375 21176 ft 438 kts 135°
2026-05-06 09:33 49.96709 19.71893 21642 ft 441 kts 135°
2026-05-06 09:33 49.94639 19.75430 22099 ft 444 kts 135°
2026-05-06 09:33 49.92549 19.78995 22531 ft 447 kts 135°
2026-05-06 09:34 49.90449 19.82574 22957 ft 450 kts 135°
2026-05-06 09:34 49.88329 19.86180 23385 ft 453 kts 135°
2026-05-06 09:34 49.86222 19.89761 23682 ft 457 kts 135°
2026-05-06 09:34 49.84064 19.93421 23914 ft 463 kts 135°
2026-05-06 09:35 49.81891 19.97103 24298 ft 463 kts 135°
2026-05-06 09:35 49.79711 20.00792 24678 ft 465 kts 135°
2026-05-06 09:35 49.77521 20.04494 25018 ft 467 kts 135°
2026-05-06 09:35 49.75319 20.08210 25338 ft 470 kts 135°
2026-05-06 09:36 49.73107 20.11936 25663 ft 472 kts 135°
2026-05-06 09:36 49.70882 20.15679 25983 ft 474 kts 135°
2026-05-06 09:36 49.68645 20.19436 26296 ft 476 kts 136°
2026-05-06 09:36 49.66393 20.23211 26561 ft 479 kts 135°
2026-05-06 09:37 49.64122 20.27014 26770 ft 483 kts 135°
2026-05-06 09:37 49.61837 20.30834 27056 ft 486 kts 135°
2026-05-06 09:37 49.59544 20.34662 27395 ft 486 kts 135°
2026-05-06 09:37 49.57250 20.38489 27799 ft 485 kts 135°
2026-05-06 09:38 49.54962 20.42300 28226 ft 484 kts 136°
2026-05-06 09:38 49.52681 20.46094 28650 ft 482 kts 136°
2026-05-06 09:38 49.50401 20.49881 29068 ft 482 kts 136°
2026-05-06 09:38 49.48126 20.53654 29470 ft 482 kts 136°
2026-05-06 09:39 49.45838 20.57436 29748 ft 484 kts 136°
2026-05-06 09:39 49.43571 20.61181 30079 ft 484 kts 136°
2026-05-06 09:39 49.41285 20.64957 30506 ft 481 kts 136°
2026-05-06 09:39 49.38994 20.68681 30956 ft 477 kts 137°
2026-05-06 09:40 49.36649 20.72261 31345 ft 475 kts 139°
2026-05-06 09:40 49.34272 20.75772 31680 ft 474 kts 140°
2026-05-06 09:40 49.29512 20.82759 32336 ft 472 kts 139°
2026-05-06 09:41 49.27158 20.86243 32776 ft 469 kts 139°
2026-05-06 09:41 49.24816 20.89726 33077 ft 469 kts 138°
2026-05-06 09:41 49.22472 20.93215 33370 ft 469 kts 139°
2026-05-06 09:41 49.20134 20.96693 33685 ft 469 kts 138°
2026-05-06 09:42 49.17796 21.00167 34010 ft 467 kts 139°
2026-05-06 09:42 49.15464 21.03622 34299 ft 466 kts 140°
2026-05-06 09:42 49.12962 21.06739 34489 ft 463 kts 150°
2026-05-06 09:42 49.10158 21.09100 34706 ft 459 kts 159°
2026-05-06 09:43 49.07186 21.10766 34987 ft 453 kts 169°
2026-05-06 09:43 49.04123 21.11829 35309 ft 449 kts 171°
2026-05-06 09:43 49.01072 21.12821 35551 ft 449 kts 171°
2026-05-06 09:43 48.98008 21.13810 35685 ft 451 kts 171°
2026-05-06 09:44 48.94926 21.14818 35805 ft 454 kts 170°
2026-05-06 09:44 48.91839 21.15842 36024 ft 454 kts 170°
2026-05-06 09:44 48.88766 21.16881 36307 ft 452 kts 171°
2026-05-06 09:44 48.85695 21.17920 36528 ft 452 kts 170°
2026-05-06 09:45 48.82623 21.18960 36723 ft 453 kts 170°
2026-05-06 09:45 48.79545 21.20000 36931 ft 453 kts 170°
2026-05-06 09:45 48.73412 21.22069 36938 ft 454 kts 170°
2026-05-06 09:46 48.67224 21.24149 36932 ft 451 kts 170°
2026-05-06 09:46 48.61156 21.26184 36934 ft 449 kts 170°
2026-05-06 09:47 48.55069 21.28227 36931 ft 448 kts 169°
2026-05-06 09:47 48.49255 21.31763 36939 ft 456 kts 151°
2026-05-06 09:48 48.43860 21.36871 36944 ft 460 kts 150°
2026-05-06 09:48 48.38442 21.42041 36930 ft 462 kts 150°
2026-05-06 09:49 48.32966 21.47178 36949 ft 465 kts 151°
2026-05-06 09:49 48.27454 21.52295 36944 ft 466 kts 151°
2026-05-06 09:50 48.21928 21.57403 36960 ft 467 kts 151°
2026-05-06 09:50 48.16396 21.62505 36962 ft 467 kts 151°
2026-05-06 09:51 48.10866 21.67598 36959 ft 466 kts 151°
2026-05-06 09:51 48.05340 21.72672 36965 ft 465 kts 151°
2026-05-06 09:52 47.99825 21.77721 36958 ft 465 kts 151°
2026-05-06 09:52 47.94302 21.82763 36969 ft 465 kts 151°
2026-05-06 09:53 47.88778 21.87794 36968 ft 466 kts 151°
2026-05-06 09:53 47.83273 21.92792 36955 ft 466 kts 152°
2026-05-06 09:54 47.77739 21.97810 36965 ft 466 kts 151°
2026-05-06 09:54 47.72192 22.02826 36969 ft 467 kts 151°
2026-05-06 09:55 47.66633 22.07833 36981 ft 468 kts 151°
2026-05-06 09:55 47.61066 22.12836 36986 ft 468 kts 151°
2026-05-06 09:56 47.55485 22.17846 36971 ft 469 kts 151°
2026-05-06 09:56 47.49902 22.22842 36981 ft 469 kts 151°
2026-05-06 09:57 47.44302 22.27839 36987 ft 470 kts 151°
2026-05-06 09:57 47.38698 22.32832 36992 ft 471 kts 151°
2026-05-06 09:58 47.33088 22.37819 36995 ft 471 kts 151°
2026-05-06 09:58 47.27499 22.42771 36990 ft 472 kts 151°
2026-05-06 09:59 47.21870 22.47744 36993 ft 472 kts 151°
2026-05-06 09:59 47.16231 22.52707 36996 ft 473 kts 151°
2026-05-06 10:00 47.10580 22.57673 37004 ft 473 kts 151°
2026-05-06 10:00 47.04922 22.62634 37010 ft 474 kts 151°
2026-05-06 10:01 46.99250 22.67598 36997 ft 474 kts 151°
2026-05-06 10:01 46.93579 22.72546 37005 ft 475 kts 151°
2026-05-06 10:02 46.87896 22.77494 37005 ft 475 kts 151°
2026-05-06 10:02 46.82212 22.82430 37007 ft 475 kts 151°
2026-05-06 10:03 46.76524 22.87357 37010 ft 475 kts 151°
2026-05-06 10:03 46.70871 22.92242 37016 ft 476 kts 151°
2026-05-06 10:04 46.65173 22.97154 37014 ft 476 kts 151°
2026-05-06 10:04 46.59469 23.02058 37013 ft 476 kts 151°
2026-05-06 10:05 46.54687 23.06161 37004 ft 476 kts 151°
2026-05-06 10:05 46.49011 23.11022 37010 ft 477 kts 151°
2026-05-06 10:06 46.43295 23.15902 37015 ft 477 kts 150°
2026-05-06 10:06 46.37574 23.20773 37016 ft 477 kts 150°
2026-05-06 10:07 46.31851 23.25629 37012 ft 477 kts 151°
2026-05-06 10:07 46.26130 23.30478 37010 ft 477 kts 150°
2026-05-06 10:08 46.20410 23.35317 37001 ft 476 kts 150°
2026-05-06 10:08 46.14688 23.40145 37003 ft 476 kts 150°
2026-05-06 10:09 46.08966 23.44964 36996 ft 477 kts 150°
2026-05-06 10:09 46.03235 23.49774 36995 ft 477 kts 151°
2026-05-06 10:10 45.97497 23.54576 36997 ft 477 kts 150°
2026-05-06 10:10 45.91748 23.59380 36998 ft 478 kts 150°
2026-05-06 10:11 45.85994 23.64176 37005 ft 479 kts 150°
2026-05-06 10:11 45.80226 23.68972 37007 ft 480 kts 150°
2026-05-06 10:12 45.74440 23.73769 37008 ft 481 kts 150°
2026-05-06 10:12 45.68682 23.78532 37013 ft 481 kts 151°
2026-05-06 10:13 45.62881 23.83320 37022 ft 482 kts 151°
2026-05-06 10:13 45.57067 23.88106 37023 ft 482 kts 151°
2026-05-06 10:14 45.51246 23.92886 37030 ft 482 kts 151°
2026-05-06 10:14 45.45432 23.97649 37042 ft 482 kts 151°
2026-05-06 10:15 45.39614 24.02404 37025 ft 482 kts 150°
2026-05-06 10:15 45.33790 24.07153 37030 ft 482 kts 151°
2026-05-06 10:16 45.27957 24.11897 37030 ft 483 kts 151°
2026-05-06 10:16 45.22125 24.16629 37025 ft 483 kts 151°
2026-05-06 10:17 45.16297 24.21347 37018 ft 483 kts 151°
2026-05-06 10:17 45.10456 24.26061 37019 ft 483 kts 151°
2026-05-06 10:18 45.04616 24.30762 37022 ft 483 kts 151°
2026-05-06 10:18 44.98769 24.35467 37027 ft 484 kts 151°
2026-05-06 10:19 44.92914 24.40163 37029 ft 484 kts 151°
2026-05-06 10:19 44.87056 24.44843 37017 ft 484 kts 151°
2026-05-06 10:20 44.81187 24.49528 37017 ft 485 kts 151°
2026-05-06 10:20 44.75315 24.54204 37025 ft 485 kts 151°
2026-05-06 10:21 44.69440 24.58873 37026 ft 485 kts 150°
2026-05-06 10:21 44.63601 24.63502 37010 ft 485 kts 150°
2026-05-06 10:22 44.57723 24.68149 37026 ft 485 kts 151°
2026-05-06 10:22 44.51840 24.72789 37022 ft 485 kts 151°
2026-05-06 10:23 44.45946 24.77420 37036 ft 485 kts 150°
2026-05-06 10:23 44.40059 24.82039 37010 ft 485 kts 151°
2026-05-06 10:24 44.34167 24.86655 37026 ft 485 kts 151°
2026-05-06 10:24 44.28275 24.91259 37027 ft 485 kts 151°
2026-05-06 10:25 44.22377 24.95859 37031 ft 485 kts 150°
2026-05-06 10:25 44.16484 25.00442 37029 ft 485 kts 150°
2026-05-06 10:26 44.10621 25.04996 37012 ft 485 kts 150°
2026-05-06 10:26 44.04720 25.09568 37029 ft 485 kts 150°
2026-05-06 10:27 43.98821 25.14123 37041 ft 485 kts 150°
2026-05-06 10:27 43.92919 25.18668 37014 ft 485 kts 151°
2026-05-06 10:28 43.87017 25.23201 37023 ft 484 kts 151°
2026-05-06 10:28 43.81123 25.27722 37011 ft 484 kts 151°
2026-05-06 10:29 43.75226 25.32236 37023 ft 484 kts 150°
2026-05-06 10:29 43.69334 25.36735 37015 ft 484 kts 150°
2026-05-06 10:30 43.63479 25.41197 37002 ft 483 kts 151°
2026-05-06 10:30 43.57511 25.45486 37015 ft 484 kts 154°
2026-05-06 10:31 43.51412 25.49524 37047 ft 484 kts 154°
2026-05-06 10:31 43.45375 25.53497 37013 ft 484 kts 154°
2026-05-06 10:32 43.39318 25.57544 37005 ft 484 kts 154°
2026-05-06 10:32 43.33259 25.61610 37022 ft 484 kts 154°
2026-05-06 10:33 43.27193 25.65671 37019 ft 485 kts 154°
2026-05-06 10:33 43.21125 25.69720 37022 ft 485 kts 154°
2026-05-06 10:34 43.15056 25.73758 37013 ft 485 kts 154°
2026-05-06 10:34 43.08966 25.77801 37028 ft 486 kts 154°
2026-05-06 10:35 43.02876 25.81837 37026 ft 487 kts 154°
2026-05-06 10:35 42.96820 25.85840 37021 ft 487 kts 154°
2026-05-06 10:36 42.90713 25.89868 37021 ft 487 kts 154°
2026-05-06 10:36 42.84607 25.93887 37022 ft 488 kts 154°
2026-05-06 10:37 42.78485 25.97907 37042 ft 488 kts 154°
2026-05-06 10:37 42.72362 26.01920 37044 ft 489 kts 154°
2026-05-06 10:38 42.66235 26.05926 37048 ft 488 kts 154°
2026-05-06 10:38 42.60105 26.09924 37056 ft 489 kts 154°
2026-05-06 10:39 42.53965 26.13921 37068 ft 489 kts 154°
2026-05-06 10:39 42.47829 26.17906 37043 ft 489 kts 154°
2026-05-06 10:40 42.41729 26.21860 37050 ft 488 kts 154°
2026-05-06 10:40 42.35602 26.25822 37080 ft 488 kts 154°
2026-05-06 10:41 42.29465 26.29782 37087 ft 488 kts 154°
2026-05-06 10:41 42.23330 26.33731 37061 ft 489 kts 154°
2026-05-06 10:42 42.17188 26.37678 37059 ft 488 kts 154°
2026-05-06 10:42 42.11050 26.41611 37068 ft 489 kts 154°
2026-05-06 10:43 42.04900 26.45545 37071 ft 489 kts 154°
2026-05-06 10:44 41.95669 26.51432 37064 ft 489 kts 155°
2026-05-06 10:44 41.89519 26.55344 37058 ft 490 kts 155°
2026-05-06 10:45 41.83668 26.59875 37082 ft 489 kts 144°
2026-05-06 10:45 41.78160 26.65227 37062 ft 489 kts 143°
2026-05-06 10:46 41.72599 26.70609 37058 ft 489 kts 144°
2026-05-06 10:46 41.67082 26.75833 37058 ft 490 kts 144°
2026-05-06 10:47 41.61504 26.81067 37068 ft 490 kts 144°
2026-05-06 10:47 41.55922 26.86296 37062 ft 490 kts 144°
2026-05-06 10:48 41.50342 26.91517 37066 ft 490 kts 144°
2026-05-06 10:48 41.44756 26.96736 37066 ft 490 kts 144°
2026-05-06 10:49 41.39168 27.01947 37067 ft 490 kts 144°
2026-05-06 10:49 41.33574 27.07151 37066 ft 490 kts 144°
2026-05-06 10:50 41.27984 27.12337 37060 ft 490 kts 144°
2026-05-06 10:50 41.22386 27.17521 37093 ft 490 kts 144°
2026-05-06 10:51 41.16786 27.22697 37073 ft 491 kts 144°
2026-05-06 10:51 41.11176 27.27871 37078 ft 491 kts 145°
2026-05-06 10:52 41.06503 27.32169 37083 ft 492 kts 145°
2026-05-06 10:52 41.00877 27.37333 37076 ft 492 kts 145°
2026-05-06 10:53 40.95233 27.42501 37089 ft 492 kts 146°
2026-05-06 10:53 40.89380 27.47204 37109 ft 492 kts 150°
2026-05-06 10:54 40.83388 27.51640 37099 ft 493 kts 151°
2026-05-06 10:54 40.77409 27.56081 37084 ft 493 kts 150°
2026-05-06 10:55 40.71456 27.60560 37098 ft 493 kts 150°
2026-05-06 10:55 40.65500 27.65058 37100 ft 493 kts 150°
2026-05-06 10:56 40.59540 27.69551 37094 ft 493 kts 150°
2026-05-06 10:56 40.53625 27.73998 37096 ft 493 kts 150°
2026-05-06 10:57 40.47656 27.78474 37092 ft 493 kts 150°
2026-05-06 10:57 40.41687 27.82941 37088 ft 494 kts 150°
2026-05-06 10:58 40.35719 27.87398 37092 ft 493 kts 150°
2026-05-06 10:58 40.29754 27.91844 37076 ft 494 kts 150°
2026-05-06 10:59 40.23777 27.96289 37088 ft 493 kts 151°
2026-05-06 10:59 40.17804 28.00723 37084 ft 493 kts 151°
2026-05-06 11:00 40.11832 28.05146 37076 ft 494 kts 151°
2026-05-06 11:00 40.05853 28.09565 37082 ft 494 kts 151°
2026-05-06 11:01 39.99909 28.13947 37082 ft 494 kts 151°
2026-05-06 11:01 39.93910 28.18364 37074 ft 495 kts 151°
2026-05-06 11:02 39.87914 28.22751 37080 ft 495 kts 151°
2026-05-06 11:02 39.81903 28.27124 37070 ft 495 kts 151°
2026-05-06 11:03 39.75892 28.31487 37083 ft 495 kts 151°
2026-05-06 11:03 39.69868 28.35853 37086 ft 495 kts 151°
2026-05-06 11:04 39.63849 28.40208 37080 ft 496 kts 152°
2026-05-06 11:04 39.57823 28.44559 37083 ft 496 kts 152°
2026-05-06 11:05 39.51789 28.48907 37097 ft 496 kts 152°
2026-05-06 11:05 39.45760 28.53241 37087 ft 496 kts 152°
2026-05-06 11:06 39.39725 28.57572 37079 ft 496 kts 152°
2026-05-06 11:06 39.33688 28.61895 37084 ft 496 kts 152°
2026-05-06 11:07 39.27647 28.66214 37069 ft 496 kts 152°
2026-05-06 11:07 39.21661 28.70482 37096 ft 496 kts 152°
2026-05-06 11:08 39.15620 28.74782 37095 ft 496 kts 152°
2026-05-06 11:08 39.09577 28.79075 37105 ft 496 kts 152°
2026-05-06 11:09 39.03527 28.83380 37082 ft 496 kts 152°
2026-05-06 11:09 38.97499 28.87678 37094 ft 496 kts 152°
2026-05-06 11:10 38.91466 28.91969 37092 ft 496 kts 152°
2026-05-06 11:10 38.85426 28.96251 37095 ft 495 kts 152°
2026-05-06 11:11 38.79393 29.00520 37103 ft 495 kts 152°
2026-05-06 11:11 38.73346 29.04789 37096 ft 496 kts 152°
2026-05-06 11:12 38.67307 29.09044 37094 ft 496 kts 152°
2026-05-06 11:12 38.61261 29.13299 37102 ft 496 kts 152°
2026-05-06 11:13 38.55250 29.17527 37092 ft 497 kts 152°
2026-05-06 11:13 38.49187 29.21782 37105 ft 497 kts 153°
2026-05-06 11:14 38.43130 29.26022 37125 ft 497 kts 153°
2026-05-06 11:14 38.37055 29.30265 37119 ft 498 kts 153°
2026-05-06 11:15 38.30971 29.34507 37096 ft 498 kts 153°
2026-05-06 11:15 38.24882 29.38743 37111 ft 499 kts 153°
2026-05-06 11:15 38.21834 29.40861 36862 ft 503 kts 153°
2026-05-06 11:16 38.18748 29.43003 36252 ft 504 kts 153°
2026-05-06 11:16 38.15676 29.45134 35616 ft 502 kts 152°
2026-05-06 11:16 38.12600 29.47266 34918 ft 503 kts 152°
2026-05-06 11:16 38.09528 29.49392 34198 ft 504 kts 152°
2026-05-06 11:17 38.06438 29.51529 33341 ft 506 kts 152°
2026-05-06 11:17 38.03345 29.53666 32539 ft 506 kts 152°
2026-05-06 11:17 38.00244 29.55806 31755 ft 507 kts 152°
2026-05-06 11:17 37.97151 29.57939 30936 ft 508 kts 152°
2026-05-06 11:18 37.94035 29.60084 30072 ft 510 kts 152°
2026-05-06 11:18 37.90918 29.62229 29019 ft 511 kts 152°
2026-05-06 11:18 37.87828 29.64351 28045 ft 511 kts 152°
2026-05-06 11:18 37.84703 29.66497 27024 ft 511 kts 152°
2026-05-06 11:19 37.81576 29.68648 25961 ft 512 kts 151°
2026-05-06 11:19 37.78580 29.71077 25140 ft 508 kts 143°
2026-05-06 11:19 37.75941 29.73999 24456 ft 501 kts 134°
2026-05-06 11:19 37.73534 29.77134 23730 ft 495 kts 133°
2026-05-06 11:20 37.71151 29.80254 22865 ft 490 kts 133°
2026-05-06 11:20 37.68782 29.83320 22074 ft 484 kts 134°
2026-05-06 11:20 37.66433 29.86319 21284 ft 477 kts 134°
2026-05-06 11:20 37.64107 29.89258 20853 ft 465 kts 135°
2026-05-06 11:21 37.61863 29.92077 20678 ft 447 kts 135°
2026-05-06 11:21 37.59700 29.94791 20471 ft 431 kts 135°
2026-05-06 11:21 37.57613 29.97414 20292 ft 417 kts 135°
2026-05-06 11:21 37.55592 29.99954 20112 ft 404 kts 135°
2026-05-06 11:22 37.53654 30.02414 20037 ft 390 kts 134°
2026-05-06 11:22 37.51774 30.04820 19879 ft 379 kts 134°
2026-05-06 11:22 37.49887 30.07078 19689 ft 369 kts 144°
2026-05-06 11:22 37.47658 30.08508 19375 ft 363 kts 161°
2026-05-06 11:23 37.45287 30.09561 19042 ft 360 kts 162°
2026-05-06 11:23 37.42921 30.10581 18682 ft 358 kts 162°
2026-05-06 11:23 37.40566 30.11599 18314 ft 357 kts 162°
2026-05-06 11:23 37.38223 30.12622 17923 ft 355 kts 162°
2026-05-06 11:24 37.35898 30.13645 17544 ft 353 kts 162°
2026-05-06 11:24 37.33593 30.14666 17162 ft 350 kts 161°
2026-05-06 11:24 37.31305 30.15682 16812 ft 348 kts 161°
2026-05-06 11:24 37.29031 30.16693 16439 ft 345 kts 161°
2026-05-06 11:25 37.26771 30.17699 16086 ft 343 kts 161°
2026-05-06 11:25 37.24526 30.18696 15719 ft 341 kts 161°
2026-05-06 11:25 37.22298 30.19686 15375 ft 339 kts 161°
2026-05-06 11:25 37.20083 30.20670 15037 ft 337 kts 161°
2026-05-06 11:26 37.17882 30.21648 14709 ft 335 kts 161°
2026-05-06 11:26 37.15706 30.22702 14290 ft 336 kts 151°
2026-05-06 11:26 37.13942 30.24560 13954 ft 331 kts 124°
2026-05-06 11:26 37.12898 30.27077 13604 ft 324 kts 103°
2026-05-06 11:27 37.12520 30.29825 13254 ft 318 kts 93°
2026-05-06 11:27 37.12306 30.32572 12899 ft 316 kts 92°
2026-05-06 11:27 37.12116 30.35191 12575 ft 314 kts 92°
2026-05-06 11:27 37.11912 30.37899 12246 ft 311 kts 92°
2026-05-06 11:28 37.11697 30.40587 11917 ft 309 kts 94°
2026-05-06 11:28 37.11475 30.43259 11595 ft 307 kts 94°
2026-05-06 11:28 37.11250 30.45913 11273 ft 305 kts 94°
2026-05-06 11:28 37.11026 30.48550 10936 ft 304 kts 94°
2026-05-06 11:29 37.10798 30.51214 10344 ft 312 kts 94°
2026-05-06 11:29 37.10566 30.53922 9792 ft 311 kts 95°
2026-05-06 11:29 37.10341 30.56513 9787 ft 287 kts 95°
2026-05-06 11:29 37.10129 30.58968 9531 ft 282 kts 94°
2026-05-06 11:30 37.09918 30.61416 9180 ft 282 kts 94°
2026-05-06 11:30 37.09707 30.63851 8929 ft 279 kts 95°
2026-05-06 11:30 37.09498 30.66252 8554 ft 280 kts 95°
2026-05-06 11:30 37.09287 30.68691 7888 ft 285 kts 94°
2026-05-06 11:31 37.09123 30.71191 7169 ft 290 kts 90°
2026-05-06 11:31 37.09043 30.73736 6472 ft 294 kts 90°
2026-05-06 11:31 37.08966 30.76312 5707 ft 298 kts 91°
2026-05-06 11:31 37.08881 30.78934 4829 ft 304 kts 93°
2026-05-06 11:32 37.08462 30.81533 3913 ft 308 kts 116°
2026-05-06 11:32 37.07124 30.83468 3298 ft 285 kts 147°
2026-05-06 11:32 37.05330 30.84123 2950 ft 260 kts 182°
2026-05-06 11:32 37.03718 30.83436 2648 ft 238 kts 218°
2026-05-06 11:33 37.03309 30.82975 2560 ft 230 kts 224°
2026-05-06 11:33 37.01295 30.81296 2133 ft 194 kts 203°
2026-05-06 11:33 37.00079 30.80793 1904 ft 175 kts 188°
2026-05-06 11:33 36.98939 30.80524 1723 ft 155 kts 185°
2026-05-06 11:34 36.97931 30.80363 1504 ft 136 kts 184°
2026-05-06 11:34 36.97000 30.80235 1317 ft 136 kts 185°
2026-05-06 11:34 36.96064 30.80106 1128 ft 137 kts 187°
2026-05-06 11:34 36.95116 30.79981 951 ft 137 kts 186°
2026-05-06 11:35 36.94204 30.79851 755 ft 127 kts 188°
2026-05-06 11:35 36.93327 30.79725 577 ft 129 kts 186°
2026-05-06 11:35 36.92470 30.79616 407 ft 121 kts 191°
2026-05-06 11:35 36.91638 30.79494 245 ft 118 kts 191°
2026-05-06 11:36 36.90855 30.79385 196 ft 99 kts 186°
2026-05-06 11:36 36.90422 30.79328 191 ft 17 kts 187°
2026-05-06 11:36 36.90376 30.79378 189 ft 8 kts 71°
2026-05-06 11:36 36.90416 30.79429 200 ft 9 kts 37°
2026-05-06 11:37 36.90468 30.79479 193 ft 10 kts 36°
2026-05-06 11:37 36.90524 30.79528 192 ft 11 kts 36°
2026-05-06 11:37 36.90598 30.79595 203 ft 14 kts 36°
2026-05-06 11:37 36.90650 30.79645 194 ft 14 kts 39°
2026-05-06 11:38 36.90728 30.79713 195 ft 13 kts 32°
2026-05-06 11:38 36.90816 30.79737 203 ft 13 kts
2026-05-06 11:38 36.90897 30.79794 190 ft 15 kts 57°
2026-05-06 11:38 36.90987 30.79852 198 ft 15 kts
2026-05-06 11:39 36.91091 30.79864 201 ft 15 kts
2026-05-06 11:39 36.91216 30.79882 190 ft 16 kts
2026-05-06 11:39 36.91306 30.79893 190 ft 13 kts
2026-05-06 11:39 36.91390 30.79919 201 ft 13 kts 49°
2026-05-06 11:40 36.91395 30.80025 197 ft 12 kts 96°
2026-05-06 11:40 36.91390 30.80093 194 ft 2 kts 97°
2026-05-06 11:40 36.91388 30.80114 190 ft 3 kts 96°
2026-05-06 11:40 36.91392 30.80148 190 ft 7 kts 62°
2026-05-06 11:41 36.91431 30.80166 197 ft 0 kts
2026-05-06 11:41 36.91439 30.80167 200 ft 2 kts
2026-05-06 11:41 36.91441 30.80167 199 ft 0 kts